Location: Ellerstadt
(49.4644°N, 8.2615°E)
Time: 23:59:27
(UTC+00:00)

SJ 16-02 - Pass Details

Date: 03 March 2021
Orbit: 605 x 617 km, 75.0° (Epoch: 13 April)

Event Time Altitude Azimuth Distance (km) Brightness Sun altitude
Rises 19:33:43 0° 340° (NNW) 2,884 5.3 -23.4°
Reaches altitude 10° 19:35:59 10° 344° (NNW) 1,977 4.4 -23.7°
Enters shadow 19:39:33 52° 17° (NNE) 771 1.7 -24.3°
